Weather History for KPMV - April, 2013

Change the Weather History Date:

Tuesday, April 2, 2013

  Actual Average (KOFF) Record (KOFF)
Temperature  
Mean Temperature 38 °F -  
Max Temperature 52 °F 55 °F 90 °F (2012)
Min Temperature 25 °F 35 °F 17 °F (2013)
Degree Days  
Heating Degree Days 26    
Moisture  
Dew Point 20 °F    
Average Humidity 49    
Maximum Humidity 70    
Minimum Humidity 30    
Precipitation  
Precipitation 0.00 in - - ()
Sea Level Pressure  
Sea Level Pressure 30.28 in    
Wind  
Wind Speed 3 mph (SE)    
Max Wind Speed 10 mph    
Max Gust Speed -    
Visibility 10 miles    
Events      
Averages and records for this station are not official NWS values.
T = Trace of Precipitation, MM = Missing Value Source: NWS Daily Summary

Daily Weather History Graph

Daily Weather History Graph

Search for Another Location

Airport or City:

Trip Planner

Search our weather history database for the weather conditions in past years. The results will help you decide how hot, cold, wet, or windy it might be!

Date:

Astronomy

Apr. 02, 2013 Rise Set
Actual Time 7:04 AM CDT 7:49 PM CDT
Civil Twilight 6:37 AM CDT 8:17 PM CDT
Nautical Twilight 6:04 AM CDT 8:50 PM CDT
Astronomical Twilight 5:30 AM CDT 9:24 PM CDT
Moon 1:57 AM CDT (4/2) 11:55 AM CDT (4/2)
Length of Visible Light 13h 40m
Length of Day
12h 44m
Waning Gibbous, 55% of the Moon is Illuminated
Apr 2
Waning Gibbous
Apr 2
Last Quarter
Apr 10
New
Apr 18
First Quarter
Apr 25
Full

Hourly Weather History & Observations

Time (CDT) Temp. Windchill Dew Point Humidity Pressure Visibility Wind Dir Wind Speed Gust Speed Precip Events Conditions
12:15 AM 30.4 °F - 18.0 °F 60% 30.30 in 10.0 mi Calm Calm - N/A   Clear
12:35 AM 29.8 °F 26.3 °F 18.3 °F 62% 30.30 in 10.0 mi SSE 3.5 mph - N/A   Clear
12:55 AM 31.8 °F 28.5 °F 18.5 °F 58% 30.29 in 10.0 mi SE 3.5 mph - N/A   Clear
1:15 AM 29.8 °F 26.3 °F 18.1 °F 62% 30.30 in 10.0 mi South 3.5 mph - N/A   Clear
1:35 AM 29.8 °F 26.3 °F 18.0 °F 61% 30.29 in 10.0 mi SSE 3.5 mph - N/A   Clear
1:55 AM 30.4 °F 26.9 °F 17.8 °F 60% 30.29 in 10.0 mi SSE 3.5 mph - N/A   Clear
2:15 AM 30.9 °F 27.5 °F 17.6 °F 58% 30.29 in 10.0 mi SE 3.5 mph - N/A   Clear
2:35 AM 30.2 °F 26.7 °F 17.6 °F 60% 30.28 in 10.0 mi SSE 3.5 mph - N/A   Clear
2:55 AM 30.0 °F 26.5 °F 17.6 °F 60% 30.28 in 10.0 mi SSE 3.5 mph - N/A   Clear
3:15 AM 30.2 °F - 17.2 °F 59% 30.28 in 10.0 mi Calm Calm - N/A   Clear
3:35 AM 28.9 °F 25.2 °F 16.7 °F 60% 30.28 in 10.0 mi South 3.5 mph - N/A   Clear
3:55 AM 28.6 °F 23.5 °F 16.7 °F 61% 30.29 in 10.0 mi South 4.6 mph - N/A   Clear
4:15 AM 27.5 °F 23.6 °F 17.4 °F 66% 30.29 in 10.0 mi South 3.5 mph - N/A   Clear
4:35 AM 28.0 °F 24.2 °F 17.2 °F 64% 30.29 in 10.0 mi SSW 3.5 mph - N/A   Clear
4:55 AM 27.9 °F 22.6 °F 16.7 °F 63% 30.30 in 10.0 mi SSW 4.6 mph - N/A   Clear
5:15 AM 26.2 °F 19.6 °F 17.1 °F 68% 30.30 in 10.0 mi SSW 5.8 mph - N/A   Clear
5:35 AM 26.8 °F 20.2 °F 17.4 °F 68% 30.30 in 10.0 mi SW 5.8 mph - N/A   Clear
5:55 AM 27.0 °F 20.5 °F 17.4 °F 67% 30.31 in 10.0 mi SSW 5.8 mph - N/A   Clear
6:15 AM 25.7 °F 20.1 °F 17.1 °F 70% 30.31 in 10.0 mi SSW 4.6 mph - N/A   Clear
6:35 AM 27.3 °F 22.0 °F 17.2 °F 66% 30.31 in 10.0 mi SSW 4.6 mph - N/A   Clear
6:55 AM 26.8 °F 22.8 °F 17.1 °F 67% 30.31 in 10.0 mi SSW 3.5 mph - N/A   Clear
7:15 AM 25.9 °F 20.3 °F 16.9 °F 69% 30.31 in 10.0 mi SSW 4.6 mph - N/A   Clear
7:35 AM 26.2 °F 22.1 °F 17.6 °F 70% 30.32 in 10.0 mi SW 3.5 mph - N/A   Clear
7:55 AM 28.4 °F - 19.2 °F 69% 30.32 in 10.0 mi Calm Calm - N/A   Clear
8:15 AM 30.2 °F - 20.5 °F 67% 30.32 in 10.0 mi Calm Calm - N/A   Clear
8:35 AM 31.3 °F - 21.9 °F 68% 30.33 in 10.0 mi Calm Calm - N/A   Clear
8:55 AM 33.1 °F - 22.8 °F 66% 30.33 in 10.0 mi Calm Calm - N/A   Clear
9:35 AM 37.2 °F 34.7 °F 23.4 °F 57% 30.33 in 10.0 mi East 3.5 mph - N/A   Clear
9:55 AM 38.3 °F 35.9 °F 21.0 °F 50% 30.33 in 10.0 mi ESE 3.5 mph - N/A   Clear
10:15 AM 39.6 °F 37.4 °F 20.3 °F 46% 30.33 in 10.0 mi SE 3.5 mph - N/A   Clear
10:35 AM 41.2 °F 39.2 °F 19.0 °F 41% 30.33 in 10.0 mi SE 3.5 mph - N/A   Scattered Clouds
10:55 AM 40.1 °F 36.9 °F 20.8 °F 46% 30.33 in 10.0 mi SE 4.6 mph - N/A   Mostly Cloudy
11:15 AM 41.4 °F 38.4 °F 20.8 °F 44% 30.33 in 10.0 mi East 4.6 mph - N/A   Overcast
11:35 AM 43.5 °F - 19.0 °F 38% 30.33 in 10.0 mi Calm Calm - N/A   Overcast
11:55 AM 41.2 °F 38.2 °F 19.4 °F 42% 30.32 in 10.0 mi ESE 4.6 mph - N/A   Scattered Clouds
12:15 PM 41.4 °F 39.4 °F 19.0 °F 41% 30.31 in 10.0 mi SSE 3.5 mph - N/A   Clear
12:35 PM 42.3 °F 40.5 °F 18.9 °F 39% 30.31 in 10.0 mi WNW 3.5 mph - N/A   Clear
12:55 PM 43.2 °F 41.5 °F 18.9 °F 38% 30.31 in 10.0 mi WSW 3.5 mph - N/A   Clear
1:15 PM 44.6 °F - 18.9 °F 36% 30.30 in 10.0 mi Calm Calm - N/A   Clear
1:35 PM 45.7 °F 44.4 °F 19.2 °F 35% 30.29 in 10.0 mi ENE 3.5 mph - N/A   Clear
1:55 PM 45.3 °F 44.0 °F 18.9 °F 35% 30.29 in 10.0 mi East 3.5 mph - N/A   Clear
2:15 PM 48.2 °F - 19.8 °F 32% 30.28 in 10.0 mi Calm Calm - N/A   Clear
2:35 PM 49.1 °F - 19.9 °F 32% 30.28 in 10.0 mi SSE 3.5 mph - N/A   Clear
2:55 PM 50.0 °F - 20.5 °F 31% 30.27 in 10.0 mi SE 3.5 mph - N/A   Clear
3:15 PM 50.5 °F - 19.9 °F 30% 30.26 in 10.0 mi NW 3.5 mph - N/A   Clear
3:35 PM 50.7 °F - 20.7 °F 31% 30.26 in 10.0 mi WNW 5.8 mph - N/A   Clear
3:55 PM 51.1 °F - 20.7 °F 30% 30.26 in 10.0 mi West 3.5 mph - N/A   Clear
4:15 PM 51.1 °F - 20.8 °F 31% 30.25 in 10.0 mi NNW 3.5 mph - N/A   Clear
4:35 PM 50.9 °F - 20.7 °F 30% 30.24 in 10.0 mi Calm Calm - N/A   Clear
4:55 PM 52.2 °F - 21.0 °F 30% 30.24 in 10.0 mi North 4.6 mph - N/A   Clear
5:15 PM 51.6 °F - 21.0 °F 30% 30.24 in 10.0 mi North 5.8 mph - N/A   Clear
5:35 PM 51.3 °F - 21.0 °F 31% 30.24 in 10.0 mi NE 4.6 mph - N/A   Clear
5:55 PM 51.3 °F - 21.0 °F 31% 30.24 in 10.0 mi East 3.5 mph - N/A   Clear
6:15 PM 50.9 °F - 20.7 °F 30% 30.24 in 10.0 mi ENE 3.5 mph - N/A   Scattered Clouds
6:35 PM 50.9 °F - 21.0 °F 31% 30.24 in 10.0 mi East 3.5 mph - N/A   Clear
6:55 PM 50.5 °F - 21.0 °F 31% 30.24 in 10.0 mi Calm Calm - N/A   Clear
7:15 PM 49.3 °F - 21.7 °F 34% 30.24 in 10.0 mi Calm Calm - N/A   Clear
7:35 PM 48.2 °F - 21.2 °F 34% 30.24 in 10.0 mi NE 3.5 mph - N/A   Clear
7:55 PM 46.6 °F - 20.7 °F 36% 30.24 in 10.0 mi East 5.8 mph - N/A   Clear
8:15 PM 45.5 °F 43.2 °F 21.2 °F 38% 30.24 in 10.0 mi East 4.6 mph - N/A   Clear
8:35 PM 43.7 °F 39.7 °F 22.1 °F 42% 30.24 in 10.0 mi East 6.9 mph - N/A   Clear
8:55 PM 42.8 °F 38.6 °F 21.9 °F 44% 30.24 in 10.0 mi ESE 6.9 mph - N/A   Clear
9:15 PM 42.3 °F 37.3 °F 21.9 °F 44% 30.25 in 10.0 mi East 8.1 mph - N/A   Clear
9:35 PM 41.9 °F 36.9 °F 21.9 °F 45% 30.26 in 10.0 mi East 8.1 mph - N/A   Clear
9:55 PM 40.6 °F 35.4 °F 22.1 °F 48% 30.26 in 10.0 mi East 8.1 mph - N/A   Clear
10:15 PM 40.1 °F 34.1 °F 22.1 °F 49% 30.27 in 10.0 mi East 9.2 mph - N/A   Clear
10:35 PM 38.5 °F 32.1 °F 22.3 °F 52% 30.28 in 10.0 mi East 9.2 mph - N/A   Clear
10:55 PM 38.3 °F 31.9 °F 22.1 °F 52% 30.28 in 10.0 mi East 9.2 mph - N/A   Clear
11:15 PM 37.6 °F 30.5 °F 21.9 °F 53% 30.28 in 10.0 mi East 10.4 mph - N/A   Clear
11:35 PM 36.5 °F 29.7 °F 21.9 °F 56% 30.28 in 10.0 mi East 9.2 mph - N/A   Clear
11:55 PM 36.0 °F 29.0 °F 21.9 °F 57% 30.29 in 10.0 mi East 9.2 mph - N/A   Clear